Location: Indian Springs
(36.5700°N, 115.6700°W)
Time: 22:31:30
(UTC-07:00)

Daily predictions for brighter satellites

Satellite Brightness Start Highest point End
(mag) Time Altitude Azimuth Time Altitude Azimuth Time Altitude Azimuth
H-2A R/B 4.4 19:37:08 10° WSW 19:43:00 54° S 20:26:54 13° ESE
H-2A R/B 4.4 19:37:09 10° WSW 19:43:00 54° S 20:26:54 13° ESE
H-2A R/B 4.4 19:37:09 10° WSW 19:43:00 54° S 20:26:51 13° ESE
H-2A R/B 4.4 19:37:09 10° WSW 19:43:00 54° S 20:26:53 13° ESE
H-2A R/B 4.4 19:37:09 10° WSW 19:43:00 54° S 20:26:58 13° ESE
H-2A R/B 4.4 19:37:08 10° WSW 19:43:00 54° S 20:26:57 13° ESE
H-2A R/B 4.4 19:37:08 10° WSW 19:43:00 54° S 20:26:52 13° ESE
H-2A R/B 4.4 19:37:09 10° WSW 19:43:00 54° S 20:26:52 13° ESE
H-2A R/B 4.4 19:37:09 10° WSW 19:43:01 54° S 20:26:57 13° ESE
H-2A R/B 4.4 19:37:08 10° WSW 19:43:01 54° S 20:26:58 13° ESE
SL-16 R/B 3.4 19:44:56 10° SE 19:48:52 20° E 19:52:48 10° NE
GPS 2-04 Rocket1 3.5 19:51:41 10° W 19:54:58 35° SSW 19:58:25 10° SE
DNEPR-1 R/B 4.4 19:51:59 10° SSW 19:58:19 79° WNW 20:03:30 10° NNE
OAO 3 Rocket 3.4 19:57:13 10° WSW 20:01:59 55° SSE 20:06:49 10° E
Resurs 01 Rocket 1.6 20:01:51 10° SSE 20:06:16 79° ENE 20:10:44 10° N
GRACE-1 4.4 20:04:10 10° NNE 20:06:46 37° E 20:09:19 10° SSE
Cosmos 1331 Rocket 4.5 20:01:42 10° SSW 20:06:58 69° WNW 20:12:16 10° NNE
GRACE-2 4.4 20:04:34 10° NNE 20:07:09 36° E 20:09:43 10° SSE
Helios 1A 3.9 20:03:50 10° SE 20:07:36 32° ENE 20:11:23 10° N
Atlas Centaur 2 3.8 20:05:15 10° SSW 20:11:00 27° SSE 20:16:54 12° ESE
USA 234 3.8 20:07:21 10° ESE 20:13:27 46° NE 20:19:40 10° NW
Cosmos 2360 4.2 20:11:30 10° SSW 20:17:13 87° ESE 20:22:59 10° NNE
ATLAS CENTAUR R/B 2.4 20:18:15 10° NW 20:20:56 55° SW 20:27:30 10° SSE
Cosmos 1408 3.8 20:20:10 10° NNE 20:23:13 24° ENE 20:24:35 19° ESE
ERBS 4.1 20:21:32 10° NNW 20:24:17 22° NE 20:26:02 15° E
ERS-1 Rocket 4.4 20:22:11 15° ESE 20:24:38 21° ENE 20:28:20 10° NNE
Molniya-1 2.9 20:24:10 10° SW 20:25:45 55° NW 20:27:39 10° NNE
Cosmos 1455 2.5 20:22:05 10° SSW 20:25:52 70° W 20:29:39 10° N
Cosmos 1486 Rocket 4.0 20:24:31 10° NNW 20:29:45 70° ENE 20:34:21 13° SSE
Cosmos 1869 3.2 20:26:33 10° S 20:30:26 64° E 20:34:21 10° NNE
OTV 4 1.7 20:30:37 10° W 20:33:10 29° SSW 20:34:14 22° SSE
Cosmos 1400 Rocket 4.3 20:36:15 10° NNW 20:39:52 37° W 20:43:30 10° SSW
Cosmos 1992 Rocket 4.4 20:36:10 10° S 20:41:00 40° ESE 20:45:53 10° NNE
SeaSat 1 4.2 20:39:59 14° ENE 20:41:50 17° NE 20:44:53 10° NNE
CZ-4B DEB 4.4 20:39:53 19° SSE 20:42:19 81° ENE 20:45:53 10° N
USA 186 2.5 20:42:33 13° SSW 20:44:36 40° W 20:47:16 10° NNW
Cosmos 1892 4.4 20:41:49 10° NNW 20:45:15 33° W 20:48:41 10° SSW
Milstar 3 3.3 20:39:48 10° WSW 20:47:22 44° S 20:50:57 24° SE
Gblst 52 Del rocket 4.5 20:43:42 10° NW 20:49:23 61° SW 20:52:45 23° SSE
Cosmos 2026 Rocket 3.9 20:43:33 10° N 20:49:46 67° E 20:54:29 18° SSE
Cosmos 1933 3.8 20:50:28 34° ESE 20:51:14 38° E 20:54:59 10° NNE
Cosmos 1315 Rocket 3.5 20:48:26 10° NNW 20:52:26 54° W 20:56:10 11° S
YAOGAN 6 3.1 20:54:41 37° E 20:55:03 38° ENE 20:58:27 10° N
DELTA 2 R/B (1) 3.8 20:51:28 10° WNW 20:56:58 58° SSW 20:59:32 31° SE
Cosmos 1503 Rocket 4.0 20:55:40 10° NNW 21:00:55 68° ENE 21:03:11 34° SE
CZ-3B DEB 3.0 20:59:04 10° WNW 21:01:02 14° WSW 21:02:12 12° SW
Cosmos 1354 Rocket 3.9 20:59:01 10° NNW 21:04:19 74° ENE 21:06:35 34° SSE
Cosmos 2263 Rocket 2.8 20:59:21 10° N 21:04:33 39° ENE 21:06:05 32° E
H-2A R/B 3.8 21:04:41 15° ENE 21:04:43 15° ENE 21:07:33 10° NNE
Cosmos 2322 Rocket 2.2 20:59:47 10° SSW 21:05:24 84° WNW 21:11:03 10° NNE
Meteor 1-29 4.2 21:05:47 10° N 21:09:07 42° WNW 21:12:22 10° SW
Cosmos 1733 Rocket 3.0 21:05:59 10° N 21:10:26 71° E 21:11:35 48° SSE
Cosmos 1655 Rocket 4.0 21:05:33 10° N 21:11:59 81° E 21:15:50 26° S
Helios 1B rocket 4.0 21:08:24 10° N 21:12:12 36° WNW 21:15:57 10° SW
Cosmos 1862 Rocket 3.4 21:11:08 30° S 21:13:17 84° E 21:17:46 10° N
Meteor 2-10 Rocket 3.9 21:11:52 36° SE 21:13:47 50° E 21:19:22 10° NNE
Lacrosse 4 Rocket 1.4 21:11:05 10° NNW 21:15:25 67° ENE 21:16:01 59° ESE
Cosmos 2360 Rocket 2.4 21:15:51 42° ESE 21:16:27 44° ESE 21:21:48 10° NE
Cosmos 1825 2.5 21:13:27 10° NNW 21:17:12 61° W 21:18:16 42° SSW
GENESIS II 4.3 21:13:54 10° SSW 21:17:57 82° WNW 21:22:01 10° NNE
Cosmos 1862 3.2 21:15:22 10° N 21:19:23 88° ENE 21:19:52 69° SSE
CZ-4B DEB 4.4 21:20:41 26° WSW 21:21:22 29° W 21:24:05 10° NW
Cosmos 2322 4.1 21:22:29 41° E 21:22:29 41° E 21:27:23 10° NE
Cosmos 1939 Rocket 3.8 21:21:31 28° SSW 21:23:15 46° W 21:27:09 10° NNW
NOAA 11 4.3 21:24:37 49° ESE 21:25:42 58° ENE 21:31:05 10° N
Cosmos 968 Rocket 4.3 21:21:40 10° N 21:26:22 33° ENE 21:26:25 33° ENE
Envisat 4.0 21:23:11 17° SSW 21:26:50 43° W 21:31:40 10° NNW
YAOGAN 11 4.4 21:27:48 51° ENE 21:27:48 51° ENE 21:31:49 10° N
SL-16 R/B 3.0 21:27:01 10° SW 21:32:31 50° WNW 21:38:01 10° N
SPOT 5 3.1 21:34:04 51° ENE 21:34:04 51° ENE 21:38:33 10° N
Cosmos 2266 Rocket 4.1 21:31:27 10° N 21:37:35 54° E 21:38:21 51° ESE
MetOp-B 4.0 21:44:34 72° SSE 21:45:08 85° ENE 21:50:31 10° NNW
OAO 3 Rocket 3.3 21:40:29 10° W 21:44:57 69° SW 21:44:57 69° SW
ATLAS 5 CENTAUR R/B 2.8 21:40:51 10° NNW 21:46:42 48° NE 21:47:28 46° ENE
SEDSat Delta rocket 4.1 21:44:03 10° WSW 21:48:41 47° SSW 21:48:41 47° SSW
Meteor 1-26 Rocket 4.1 21:48:40 61° S 21:49:45 90° NW 21:55:32 10° N
SPOT 1/Viking Rocket 3.9 21:52:06 51° NE 21:52:06 51° NE 21:56:40 10° N
Nimbus 7 Rocket 4.3 21:45:54 10° NNE 21:51:50 72° ESE 21:52:11 70° SE
ARGOS 3.0 21:53:21 77° ENE 21:53:21 77° ENE 21:58:43 10° N
USA 234 3.8 21:54:42 40° SSW 21:56:23 48° SW 22:02:41 10° NW
Atlas Centaur 2 3.2 21:52:37 10° WSW 21:59:34 50° S 21:59:34 50° S
Cosmos 489 Rocket 4.3 21:54:13 10° NNW 22:00:35 84° ENE 22:01:08 76° SE
ERS-1 Rocket 3.9 22:02:11 37° SW 22:03:06 40° W 22:07:49 10° NNW
Cosmos 1844 Rocket 4.0 22:03:31 10° N 22:07:24 27° NE 22:07:24 27° NE
Sich 1 Rocket 4.5 22:05:25 10° NNW 22:08:58 48° NW 22:08:58 48° NW
MOS 1-B Rocket 3.9 22:16:44 75° WSW 22:16:55 76° WSW 22:22:39 10° NNW
SeaSat 1 3.0 22:19:46 54° WNW 22:19:46 54° WNW 22:23:46 10° NNW
H-2A R/B 4.0 22:21:27 23° N 22:21:27 23° N 22:23:13 10° N
Cosmos 2219 Rocket 4.3 22:27:00 15° NE 22:27:00 15° NE 22:28:02 10° NE
USA 229 DEB 4.1 22:39:03 35° WSW 22:41:55 60° NW 22:48:47 10° NNE
USA 229 4.1 22:39:21 37° WSW 22:42:01 60° NW 22:48:53 10° NNE
Terra 3.5 22:44:38 30° N 22:44:38 30° N 22:47:01 10° N
H-2A R/B 3.2 22:45:19 38° NW 22:45:19 38° NW 22:48:34 10° NNW
COSMOS 2428 3.8 22:46:58 40° N 22:46:58 40° N 22:50:34 10° NNE
Cosmos 2263 Rocket 3.8 22:43:45 10° NW 22:47:48 25° W 22:47:48 25° W
Cosmos 2360 Rocket 4.2 22:57:26 15° W 23:00:37 24° WNW 23:05:10 10° N
Cosmos 2333 Rocket 4.0 23:28:48 26° NNE 23:28:48 26° NNE 23:31:16 10° NNE
CZ-4C R/B 3.6 23:24:08 10° NNW 23:30:05 45° NNE 23:30:05 45° NNE
ATLAS 5 CENTAUR R/B 4.2 23:25:58 10° NW 23:29:01 24° W 23:29:01 24° W
Cosmos 2237 Rocket 4.2 23:38:23 22° NNE 23:38:23 22° NNE 23:40:21 10° NNE
Cosmos 2278 Rocket 3.9 23:35:20 10° NNW 23:37:59 28° N 23:37:59 28° N
